Airport Information

KOLM - Olympia Regional Airport

KOLM 251212Z AUTO 00000KT 3SM BR CLR 02/02 A3002 RMK AO2 T00220017


  • General Information

  • Coordinates: N 46°58'9"/ W 122°54'9"
  • Location: N/A
  • Surveyed Elevation: 209 MSL

Operations

Flow Name Active Runways Conditions

Green background denotes normal operations.


Common Frequencies

Callsign Frequency Position Name

More at the Document Center


Charts